Time,TemperatureF,DewpointF,PressureIn,WindDirection,WindDirectionDegrees,WindSpeedMPH,WindSpeedGustMPH,Humidity,HourlyPrecipIn,Conditions,Clouds,dailyrainin,SoftwareType,DateUTC
2013-03-03 00:01:00,57.0,52.0,30.12,South,183,0.0,0.0,83,0.00,,,0.00,,2013-03-03 08:01:00,
2013-03-03 00:11:00,57.0,52.0,30.12,South,183,0.0,0.0,83,0.00,,,0.00,,2013-03-03 08:11:00,
2013-03-03 00:21:00,57.0,52.0,30.11,South,183,0.0,0.0,84,0.00,,,0.00,,2013-03-03 08:21:00,
2013-03-03 00:31:00,57.0,53.0,30.14,South,176,0.0,0.0,85,0.00,,,0.00,,2013-03-03 08:31:00,
2013-03-03 00:41:00,57.0,53.0,30.14,South,176,0.0,0.0,85,0.00,,,0.00,,2013-03-03 08:41:00,
2013-03-03 00:53:00,57.0,53.0,30.10,South,176,0.0,0.0,85,0.00,,,0.00,,2013-03-03 08:53:00,
2013-03-03 01:01:00,57.0,53.0,30.11,South,176,0.0,0.0,85,0.00,,,0.00,,2013-03-03 09:01:00,
2013-03-03 01:11:00,57.0,53.0,30.11,South,176,0.0,0.0,85,0.00,,,0.00,,2013-03-03 09:11:00,
2013-03-03 01:21:00,57.0,53.0,30.09,South,176,0.0,0.0,85,0.00,,,0.00,,2013-03-03 09:21:00,
2013-03-03 01:31:00,57.0,52.0,30.10,ESE,102,0.0,0.0,84,0.00,,,0.00,,2013-03-03 09:31:00,
2013-03-03 01:41:00,57.0,52.0,30.10,ESE,102,0.0,0.0,84,0.00,,,0.00,,2013-03-03 09:41:00,
2013-03-03 01:51:00,57.0,52.0,30.09,North,0,0.0,0.0,84,0.00,,,0.00,,2013-03-03 09:51:00,
2013-03-03 02:01:00,57.0,52.0,30.08,East,94,7.0,7.0,82,0.00,,,0.00,,2013-03-03 10:01:00,
2013-03-03 02:11:00,57.0,52.0,30.08,East,94,7.0,7.0,82,0.00,,,0.00,,2013-03-03 10:11:00,
2013-03-03 02:21:00,57.0,51.0,30.06,East,90,0.0,0.0,81,0.00,,,0.00,,2013-03-03 10:21:00,
2013-03-03 02:31:00,57.0,51.0,30.06,East,90,0.0,0.0,80,0.00,,,0.00,,2013-03-03 10:31:00,
2013-03-03 02:41:00,57.0,51.0,30.06,East,90,0.0,0.0,80,0.00,,,0.00,,2013-03-03 10:41:00,
2013-03-03 02:52:00,57.0,50.0,30.05,East,90,0.0,0.0,77,0.00,,,0.00,,2013-03-03 10:52:00,
2013-03-03 03:01:00,58.0,49.0,30.05,East,90,0.0,0.0,73,0.00,,,0.00,,2013-03-03 11:01:00,
2013-03-03 03:11:00,58.0,49.0,30.05,East,90,0.0,0.0,73,0.00,,,0.00,,2013-03-03 11:11:00,
2013-03-03 03:21:00,58.0,49.0,30.05,East,90,0.0,0.0,73,0.00,,,0.00,,2013-03-03 11:21:00,
2013-03-03 03:31:00,58.0,50.0,30.05,East,90,0.0,0.0,75,0.00,,,0.00,,2013-03-03 11:31:00,
2013-03-03 03:41:00,58.0,50.0,30.05,East,90,0.0,0.0,75,0.00,,,0.00,,2013-03-03 11:41:00,
2013-03-03 03:52:00,58.0,50.0,30.03,East,90,0.0,0.0,76,0.00,,,0.00,,2013-03-03 11:52:00,
2013-03-03 04:01:00,58.0,51.0,30.04,East,90,0.0,0.0,77,0.00,,,0.00,,2013-03-03 12:01:00,
2013-03-03 04:11:00,58.0,51.0,30.04,East,90,0.0,0.0,77,0.00,,,0.00,,2013-03-03 12:11:00,
2013-03-03 04:21:00,58.0,50.0,30.05,East,90,0.0,0.0,75,0.00,,,0.00,,2013-03-03 12:21:00,
2013-03-03 04:31:00,58.0,49.0,30.05,East,90,0.0,0.0,73,0.00,,,0.00,,2013-03-03 12:31:00,
2013-03-03 04:42:00,58.0,49.0,30.05,East,90,0.0,0.0,73,0.00,,,0.00,,2013-03-03 12:42:00,
2013-03-03 04:52:00,58.0,49.0,30.06,East,90,0.0,0.0,72,0.00,,,0.00,,2013-03-03 12:52:00,
2013-03-03 05:01:00,58.0,50.0,30.07,SSW,202,0.0,0.0,75,0.00,,,0.00,,2013-03-03 13:01:00,
2013-03-03 05:11:00,58.0,50.0,30.07,SSW,202,0.0,0.0,75,0.00,,,0.00,,2013-03-03 13:11:00,
2013-03-03 05:21:00,58.0,50.0,30.08,South,186,0.0,7.0,76,0.00,,,0.00,,2013-03-03 13:21:00,
2013-03-03 05:31:00,57.0,51.0,30.07,SW,223,0.0,0.0,80,0.00,,,0.00,,2013-03-03 13:31:00,
2013-03-03 05:41:00,57.0,51.0,30.07,SW,223,0.0,0.0,80,0.00,,,0.00,,2013-03-03 13:41:00,
2013-03-03 05:52:00,57.0,51.0,30.06,SW,223,0.0,0.0,81,0.00,,,0.00,,2013-03-03 13:52:00,
2013-03-03 06:01:00,57.0,52.0,30.08,SW,223,0.0,0.0,82,0.00,,,0.00,,2013-03-03 14:01:00,
2013-03-03 06:11:00,57.0,52.0,30.08,SW,223,0.0,0.0,82,0.00,,,0.00,,2013-03-03 14:11:00,
2013-03-03 06:21:00,58.0,53.0,30.08,SW,223,0.0,0.0,82,0.00,,,0.00,,2013-03-03 14:21:00,
2013-03-03 06:31:00,58.0,53.0,30.08,SW,223,0.0,0.0,82,0.00,,,0.00,,2013-03-03 14:31:00,
2013-03-03 06:42:00,58.0,53.0,30.08,SW,223,0.0,0.0,82,0.00,,,0.00,,2013-03-03 14:42:00,
2013-03-03 06:52:00,58.0,53.0,30.08,SW,223,0.0,0.0,82,0.00,,,0.00,,2013-03-03 14:52:00,
2013-03-03 07:01:00,57.0,52.0,30.07,SW,223,0.0,0.0,82,0.00,,,0.00,,2013-03-03 15:01:00,
2013-03-03 07:11:00,57.0,52.0,30.07,SW,223,0.0,0.0,82,0.00,,,0.00,,2013-03-03 15:11:00,
2013-03-03 07:21:00,57.0,52.0,30.06,SW,223,0.0,0.0,82,0.00,,,0.00,,2013-03-03 15:21:00,
2013-03-03 07:31:00,57.0,52.0,30.07,SW,223,0.0,0.0,83,0.00,,,0.00,,2013-03-03 15:31:00,
2013-03-03 07:41:00,57.0,52.0,30.07,SW,223,0.0,0.0,83,0.00,,,0.00,,2013-03-03 15:41:00,
2013-03-03 07:52:00,58.0,53.0,30.08,SW,223,0.0,0.0,83,0.00,,,0.00,,2013-03-03 15:52:00,
2013-03-03 08:01:00,58.0,53.0,30.09,SW,223,0.0,0.0,83,0.00,,,0.00,,2013-03-03 16:01:00,
2013-03-03 08:11:00,58.0,53.0,30.09,SW,223,0.0,0.0,83,0.00,,,0.00,,2013-03-03 16:11:00,
2013-03-03 08:21:00,58.0,53.0,30.09,SW,223,0.0,0.0,83,0.00,,,0.00,,2013-03-03 16:21:00,
2013-03-03 08:31:00,58.0,53.0,30.09,SW,223,0.0,0.0,84,0.00,,,0.00,,2013-03-03 16:31:00,
2013-03-03 08:41:00,58.0,53.0,30.09,SW,223,0.0,0.0,84,0.00,,,0.00,,2013-03-03 16:41:00,
2013-03-03 08:52:00,59.0,54.0,30.08,SW,223,0.0,0.0,83,0.00,,,0.00,,2013-03-03 16:52:00,
2013-03-03 09:01:00,59.0,54.0,30.09,SW,223,0.0,0.0,83,0.00,,,0.00,,2013-03-03 17:01:00,
2013-03-03 09:11:00,59.0,54.0,30.09,SW,223,0.0,0.0,83,0.00,,,0.00,,2013-03-03 17:11:00,
2013-03-03 09:21:00,59.0,54.0,30.09,SW,223,0.0,0.0,83,0.00,,,0.00,,2013-03-03 17:21:00,
2013-03-03 09:32:00,59.0,54.0,30.09,SW,223,0.0,0.0,83,0.00,,,0.00,,2013-03-03 17:32:00,
2013-03-03 09:41:00,59.0,54.0,30.09,SW,223,0.0,0.0,83,0.00,,,0.00,,2013-03-03 17:41:00,
2013-03-03 09:52:00,60.0,54.0,30.10,SW,223,0.0,0.0,82,0.00,,,0.00,,2013-03-03 17:52:00,
2013-03-03 10:01:00,61.0,55.0,30.09,South,171,0.0,0.0,81,0.00,,,0.00,,2013-03-03 18:01:00,
2013-03-03 10:11:00,61.0,55.0,30.09,South,171,0.0,0.0,81,0.00,,,0.00,,2013-03-03 18:11:00,
2013-03-03 10:21:00,61.0,54.0,30.09,South,171,0.0,0.0,79,0.00,,,0.00,,2013-03-03 18:21:00,
2013-03-03 10:31:00,63.0,55.0,30.08,NE,53,0.0,0.0,75,0.00,,,0.00,,2013-03-03 18:31:00,
2013-03-03 10:41:00,63.0,55.0,30.08,NE,53,0.0,0.0,75,0.00,,,0.00,,2013-03-03 18:41:00,
2013-03-03 10:52:00,63.0,54.0,30.08,NE,53,0.0,0.0,73,0.00,,,0.00,,2013-03-03 18:52:00,
2013-03-03 11:01:00,64.0,52.0,30.07,NE,53,0.0,0.0,65,0.00,,,0.00,,2013-03-03 19:01:00,
2013-03-03 11:11:00,65.0,52.0,30.06,North,7,0.0,9.0,63,0.00,,,0.00,,2013-03-03 19:11:00,
2013-03-03 11:21:00,65.0,52.0,30.06,North,7,0.0,9.0,63,0.00,,,0.00,,2013-03-03 19:21:00,
2013-03-03 11:31:00,66.0,52.0,30.06,SSW,197,0.0,0.0,60,0.00,,,0.00,,2013-03-03 19:31:00,
2013-03-03 11:42:00,66.0,52.0,30.06,SSW,197,0.0,0.0,60,0.00,,,0.00,,2013-03-03 19:42:00,
2013-03-03 11:52:00,67.0,51.0,30.06,SSW,197,0.0,5.0,57,0.00,,,0.00,,2013-03-03 19:52:00,
2013-03-03 12:01:00,68.0,54.0,30.05,SSW,210,0.0,9.0,61,0.00,,,0.00,,2013-03-03 20:01:00,
2013-03-03 12:11:00,68.0,54.0,30.05,SSW,210,0.0,9.0,61,0.00,,,0.00,,2013-03-03 20:11:00,
2013-03-03 12:21:00,67.0,54.0,30.05,SSW,202,4.0,11.0,63,0.00,,,0.00,,2013-03-03 20:21:00,
2013-03-03 12:31:00,67.0,55.0,30.04,SW,228,0.0,6.0,65,0.00,,,0.00,,2013-03-03 20:31:00,
2013-03-03 12:42:00,67.0,55.0,30.04,SW,228,0.0,6.0,65,0.00,,,0.00,,2013-03-03 20:42:00,
2013-03-03 12:52:00,67.0,54.0,30.03,SW,230,0.0,10.0,64,0.00,,,0.00,,2013-03-03 20:52:00,
2013-03-03 13:01:00,67.0,54.0,30.03,WSW,255,5.0,9.0,63,0.00,,,0.00,,2013-03-03 21:01:00,
2013-03-03 13:11:00,67.0,54.0,30.03,WSW,255,5.0,9.0,63,0.00,,,0.00,,2013-03-03 21:11:00,
2013-03-03 13:21:00,67.0,54.0,30.03,SW,225,0.0,11.0,63,0.00,,,0.00,,2013-03-03 21:21:00,
2013-03-03 13:31:00,67.0,54.0,30.02,SSW,201,8.0,13.0,64,0.00,,,0.00,,2013-03-03 21:31:00,
2013-03-03 13:41:00,67.0,54.0,30.02,SSW,201,8.0,13.0,64,0.00,,,0.00,,2013-03-03 21:41:00,
2013-03-03 13:52:00,66.0,54.0,30.02,SSW,203,5.0,11.0,66,0.00,,,0.00,,2013-03-03 21:52:00,
2013-03-03 14:01:00,65.0,55.0,30.02,SSW,210,3.0,10.0,69,0.00,,,0.00,,2013-03-03 22:01:00,
2013-03-03 14:11:00,65.0,55.0,30.02,SSW,210,3.0,10.0,69,0.00,,,0.00,,2013-03-03 22:11:00,
2013-03-03 14:21:00,65.0,55.0,30.02,SW,226,5.0,13.0,70,0.00,,,0.00,,2013-03-03 22:21:00,
2013-03-03 14:31:00,65.0,55.0,30.01,SW,217,10.0,14.0,70,0.00,,,0.00,,2013-03-03 22:31:00,
2013-03-03 14:41:00,65.0,55.0,30.01,SW,217,10.0,14.0,70,0.00,,,0.00,,2013-03-03 22:41:00,
2013-03-03 14:52:00,65.0,55.0,30.01,WSW,237,8.0,16.0,70,0.00,,,0.00,,2013-03-03 22:52:00,
2013-03-03 15:01:00,64.0,55.0,30.00,SW,225,5.0,13.0,72,0.00,,,0.00,,2013-03-03 23:01:00,
2013-03-03 15:11:00,64.0,55.0,30.00,SW,225,5.0,13.0,72,0.00,,,0.00,,2013-03-03 23:11:00,
2013-03-03 15:21:00,64.0,55.0,30.00,SW,215,8.0,15.0,72,0.00,,,0.00,,2013-03-03 23:21:00,
2013-03-03 15:31:00,63.0,54.0,30.01,SW,218,12.0,14.0,73,0.00,,,0.00,,2013-03-03 23:31:00,
2013-03-03 15:41:00,63.0,54.0,30.01,SW,218,12.0,14.0,73,0.00,,,0.00,,2013-03-03 23:41:00,
2013-03-03 15:52:00,63.0,55.0,30.00,SSW,203,8.0,13.0,74,0.00,,,0.00,,2013-03-03 23:52:00,
2013-03-03 16:01:00,63.0,54.0,29.99,SSW,209,0.0,14.0,73,0.00,,,0.00,,2013-03-04 00:01:00,
2013-03-03 16:11:00,63.0,54.0,29.99,SSW,209,0.0,14.0,73,0.00,,,0.00,,2013-03-04 00:11:00,
2013-03-03 16:21:00,63.0,54.0,29.99,SSW,197,8.0,12.0,73,0.00,,,0.00,,2013-03-04 00:21:00,
2013-03-03 16:31:00,63.0,54.0,29.99,South,186,0.0,8.0,73,0.00,,,0.00,,2013-03-04 00:31:00,
2013-03-03 16:41:00,63.0,54.0,29.99,South,186,0.0,8.0,73,0.00,,,0.00,,2013-03-04 00:41:00,
2013-03-03 16:52:00,62.0,54.0,29.99,WSW,237,0.0,9.0,74,0.00,,,0.00,,2013-03-04 00:52:00,
2013-03-03 17:01:00,61.0,53.0,30.00,SW,226,7.0,15.0,75,0.00,,,0.00,,2013-03-04 01:01:00,
2013-03-03 17:11:00,61.0,53.0,30.00,SW,226,7.0,15.0,75,0.00,,,0.00,,2013-03-04 01:11:00,
2013-03-03 17:21:00,61.0,53.0,30.00,SW,231,0.0,10.0,76,0.00,,,0.00,,2013-03-04 01:21:00,
2013-03-03 17:31:00,60.0,53.0,30.00,South,180,5.0,8.0,77,0.00,,,0.00,,2013-03-04 01:31:00,
2013-03-03 17:41:00,60.0,53.0,30.00,South,180,5.0,8.0,77,0.00,,,0.00,,2013-03-04 01:41:00,
2013-03-03 17:52:00,59.0,52.0,30.01,SSW,205,0.0,9.0,78,0.00,,,0.00,,2013-03-04 01:52:00,
2013-03-03 18:01:00,59.0,52.0,30.00,SSW,193,0.0,0.0,79,0.00,,,0.00,,2013-03-04 02:01:00,
2013-03-03 18:11:00,59.0,52.0,30.00,South,185,0.0,7.0,79,0.00,,,0.00,,2013-03-04 02:11:00,
2013-03-03 18:22:00,59.0,52.0,30.00,South,185,0.0,7.0,79,0.00,,,0.00,,2013-03-04 02:22:00,
2013-03-03 18:31:00,58.0,52.0,30.00,SW,227,0.0,0.0,80,0.00,,,0.00,,2013-03-04 02:31:00,
2013-03-03 18:41:00,58.0,52.0,30.00,SW,227,0.0,0.0,80,0.00,,,0.00,,2013-03-04 02:41:00,
2013-03-03 18:52:00,58.0,52.0,30.00,SW,227,0.0,0.0,80,0.00,,,0.00,,2013-03-04 02:52:00,
2013-03-03 19:01:00,58.0,52.0,30.00,SW,216,8.0,10.0,80,0.00,,,0.00,,2013-03-04 03:01:00,
2013-03-03 19:11:00,58.0,52.0,30.00,SW,216,8.0,10.0,80,0.00,,,0.00,,2013-03-04 03:11:00,
2013-03-03 19:21:00,58.0,52.0,30.01,SW,231,0.0,7.0,81,0.00,,,0.00,,2013-03-04 03:21:00,
2013-03-03 19:31:00,58.0,52.0,30.01,South,182,0.0,0.0,81,0.00,,,0.00,,2013-03-04 03:31:00,
2013-03-03 19:41:00,58.0,52.0,30.01,South,182,0.0,0.0,81,0.00,,,0.00,,2013-03-04 03:41:00,
2013-03-03 19:52:00,58.0,52.0,30.01,South,182,0.0,0.0,81,0.00,,,0.00,,2013-03-04 03:52:00,
2013-03-03 20:01:00,58.0,53.0,30.01,South,177,0.0,0.0,82,0.00,,,0.00,,2013-03-04 04:01:00,
2013-03-03 20:11:00,58.0,53.0,30.01,South,177,0.0,0.0,82,0.00,,,0.00,,2013-03-04 04:11:00,
2013-03-03 20:21:00,58.0,53.0,30.01,South,177,0.0,0.0,82,0.00,,,0.00,,2013-03-04 04:21:00,
2013-03-03 20:31:00,58.0,52.0,30.02,South,177,0.0,0.0,81,0.00,,,0.00,,2013-03-04 04:31:00,
2013-03-03 20:41:00,58.0,52.0,30.02,South,177,0.0,0.0,81,0.00,,,0.00,,2013-03-04 04:41:00,
2013-03-03 20:51:00,58.0,52.0,30.02,South,177,0.0,0.0,81,0.00,,,0.00,,2013-03-04 04:51:00,
2013-03-03 21:01:00,57.0,52.0,30.02,South,177,0.0,0.0,82,0.00,,,0.00,,2013-03-04 05:01:00,
2013-03-03 21:11:00,57.0,52.0,30.02,South,177,0.0,0.0,82,0.00,,,0.00,,2013-03-04 05:11:00,
2013-03-03 21:22:00,57.0,52.0,30.02,South,177,0.0,0.0,82,0.00,,,0.00,,2013-03-04 05:22:00,
2013-03-03 21:31:00,57.0,52.0,30.02,South,177,0.0,0.0,82,0.00,,,0.00,,2013-03-04 05:31:00,
2013-03-03 21:42:00,57.0,52.0,30.02,South,177,0.0,0.0,82,0.00,,,0.00,,2013-03-04 05:42:00,
2013-03-03 21:52:00,57.0,52.0,30.02,South,177,0.0,0.0,82,0.00,,,0.00,,2013-03-04 05:52:00,
2013-03-03 22:01:00,57.0,52.0,30.02,East,88,0.0,0.0,82,0.00,,,0.00,,2013-03-04 06:01:00,
2013-03-03 22:11:00,57.0,52.0,30.02,East,88,0.0,0.0,82,0.00,,,0.00,,2013-03-04 06:11:00,
2013-03-03 22:21:00,57.0,52.0,30.02,East,88,0.0,0.0,83,0.00,,,0.00,,2013-03-04 06:21:00,
2013-03-03 22:31:00,57.0,52.0,30.02,East,88,0.0,0.0,83,0.00,,,0.00,,2013-03-04 06:31:00,
2013-03-03 22:42:00,57.0,52.0,30.02,East,88,0.0,0.0,83,0.00,,,0.00,,2013-03-04 06:42:00,
2013-03-03 22:51:00,56.0,51.0,30.02,East,88,0.0,0.0,83,0.00,,,0.00,,2013-03-04 06:51:00,
2013-03-03 23:01:00,56.0,51.0,30.02,East,88,0.0,0.0,82,0.00,,,0.00,,2013-03-04 07:01:00,
2013-03-03 23:11:00,56.0,51.0,30.02,East,88,0.0,0.0,82,0.00,,,0.00,,2013-03-04 07:11:00,
2013-03-03 23:21:00,56.0,51.0,30.02,East,88,0.0,0.0,82,0.00,,,0.00,,2013-03-04 07:21:00,
2013-03-03 23:31:00,56.0,51.0,30.02,East,88,0.0,0.0,83,0.00,,,0.00,,2013-03-04 07:31:00,
2013-03-03 23:41:00,56.0,51.0,30.02,East,88,0.0,0.0,83,0.00,,,0.00,,2013-03-04 07:41:00,
2013-03-03 23:52:00,56.0,51.0,30.02,East,88,0.0,0.0,82,0.00,,,0.00,,2013-03-04 07:52:00,